When you browse on this site, cookies collect data to enhance your experience and personalize the content and advertising you see.
Visit our Privacy Policy to learn more. By continuing to use the site, you agree to this use of cookies and data.

Hourly Weather Podsev

Today, 4 July, Saturday

Time Temperature Precipitation Wind Pressure Humidity
00:00 +13°C° 0 mm 0 mps 753 mmHg 81%
01:00 +13°C° 0 mm 0 mps 753 mmHg 81%
02:00 +13°C° 0 mm 0 mps 753 mmHg 77%
03:00 +14°C° 0 mm 0 mps 753 mmHg 78%
04:00 +14°C° 0 mm 0 mps 753 mmHg 79%
05:00 +15°C° 0 mm 1 mps 753 mmHg 80%
06:00 +18°C° 0 mm 1 mps 753 mmHg 74%
07:00 +20°C° 0 mm 1 mps 754 mmHg 68%
08:00 +20°C° 0 mm 2 mps 754 mmHg 59%
09:00 +21°C° 0 mm 2 mps 754 mmHg 58%
10:00 +22°C° 0 mm 3 mps 754 mmHg 56%
11:00 +24°C° 0 mm 3 mps 753 mmHg 54%
12:00 +23°C° 0 mm 4 mps 753 mmHg 51%
13:00 +25°C° 0 mm 4 mps 753 mmHg 47%
14:00 +25°C° 0 mm 5 mps 753 mmHg 43%
15:00 +25°C° 0 mm 4 mps 753 mmHg 45%
16:00 +25°C° 0 mm 4 mps 753 mmHg 48%
17:00 +23°C° 0 mm 4 mps 753 mmHg 50%
18:00 +22°C° 0 mm 3 mps 753 mmHg 56%
19:00 +20°C° 0 mm 2 mps 753 mmHg 63%
20:00 +19°C° 0 mm 2 mps 753 mmHg 70%
21:00 +19°C° 0 mm 2 mps 753 mmHg 71%
22:00 +18°C° 0 mm 2 mps 753 mmHg 73%
23:00 +18°C° 0 mm 2 mps 753 mmHg 75%

Tomorrow, 5 July, Sunday

Time Temperature Precipitation Wind Pressure Humidity
00:00 +18°C° 0 mm 3 mps 752 mmHg 76%
01:00 +18°C° 0 mm 3 mps 752 mmHg 78%
02:00 +18°C° 0 mm 3 mps 752 mmHg 80%
03:00 +18°C° 0 mm 3 mps 751 mmHg 79%
04:00 +18°C° 0 mm 3 mps 751 mmHg 78%
05:00 +19°C° 0 mm 4 mps 750 mmHg 77%
06:00 +18°C° 0.5 mm 4 mps 750 mmHg 82%
07:00 +18°C° 0.5 mm 4 mps 750 mmHg 86%
08:00 +18°C° 0.5 mm 4 mps 750 mmHg 91%
09:00 +18°C° 0.9 mm 4 mps 750 mmHg 93%
10:00 +18°C° 0.9 mm 4 mps 750 mmHg 95%
11:00 +17°C° 0.9 mm 4 mps 750 mmHg 96%
12:00 +18°C° 0.2 mm 4 mps 750 mmHg 96%
13:00 +18°C° 0.2 mm 4 mps 750 mmHg 95%
14:00 +18°C° 0.2 mm 4 mps 749 mmHg 94%
15:00 +19°C° 0.1 mm 4 mps 749 mmHg 88%
16:00 +20°C° 0.1 mm 4 mps 749 mmHg 83%
17:00 +21°C° 0.1 mm 4 mps 749 mmHg 77%
18:00 +21°C° 0.1 mm 4 mps 749 mmHg 80%
19:00 +20°C° 0.1 mm 4 mps 748 mmHg 84%
20:00 +20°C° 0.1 mm 3 mps 748 mmHg 88%
21:00 +20°C° 0 mm 4 mps 748 mmHg 87%
22:00 +20°C° 0 mm 4 mps 747 mmHg 87%
23:00 +20°C° 0 mm 5 mps 747 mmHg 87%

Day after tomorrow, 6 July, Monday

Time Temperature Precipitation Wind Pressure Humidity
00:00 +19°C° 0.1 mm 5 mps 747 mmHg 89%
01:00 +19°C° 0.1 mm 5 mps 747 mmHg 90%
02:00 +19°C° 0.1 mm 5 mps 747 mmHg 92%
03:00 +19°C° 0 mm 5 mps 747 mmHg 91%
04:00 +19°C° 0 mm 5 mps 747 mmHg 90%
05:00 +19°C° 0 mm 4 mps 747 mmHg 90%
06:00 +19°C° 0.1 mm 5 mps 747 mmHg 84%
07:00 +20°C° 0.1 mm 5 mps 747 mmHg 79%
08:00 +21°C° 0.1 mm 6 mps 747 mmHg 74%
09:00 +22°C° 0.2 mm 6 mps 747 mmHg 67%
10:00 +23°C° 0.2 mm 6 mps 747 mmHg 60%
11:00 +24°C° 0.2 mm 6 mps 748 mmHg 54%
12:00 +23°C° 0 mm 6 mps 748 mmHg 55%
13:00 +23°C° 0 mm 6 mps 748 mmHg 56%
14:00 +23°C° 0 mm 5 mps 748 mmHg 57%
15:00 +22°C° 0.1 mm 5 mps 748 mmHg 63%
16:00 +21°C° 0.1 mm 4 mps 748 mmHg 69%
17:00 +21°C° 0.1 mm 4 mps 748 mmHg 74%
18:00 +20°C° 0 mm 3 mps 748 mmHg 76%
19:00 +20°C° 0 mm 3 mps 748 mmHg 77%
20:00 +19°C° 0 mm 3 mps 748 mmHg 79%
21:00 +18°C° 0 mm 3 mps 749 mmHg 82%
22:00 +17°C° 0 mm 2 mps 749 mmHg 86%
23:00 +16°C° 0 mm 2 mps 749 mmHg 90%

7 July, Tuesday

Time Temperature Precipitation Wind Pressure Humidity
00:00 +15°C° 0 mm 2 mps 749 mmHg 88%
01:00 +14°C° 0 mm 2 mps 750 mmHg 86%
02:00 +14°C° 0 mm 2 mps 750 mmHg 84%
03:00 +14°C° 0 mm 2 mps 750 mmHg 83%
04:00 +14°C° 0 mm 2 mps 750 mmHg 82%
05:00 +14°C° 0 mm 2 mps 750 mmHg 81%
06:00 +15°C° 0 mm 2 mps 750 mmHg 75%
07:00 +16°C° 0 mm 2 mps 750 mmHg 68%
08:00 +18°C° 0 mm 2 mps 750 mmHg 62%
09:00 +19°C° 0 mm 3 mps 751 mmHg 57%
10:00 +20°C° 0 mm 3 mps 751 mmHg 51%
11:00 +21°C° 0 mm 3 mps 751 mmHg 46%
12:00 +22°C° 0 mm 3 mps 751 mmHg 45%
13:00 +22°C° 0 mm 4 mps 750 mmHg 45%
14:00 +23°C° 0 mm 4 mps 750 mmHg 44%
15:00 +23°C° 0 mm 4 mps 750 mmHg 45%
16:00 +22°C° 0 mm 4 mps 751 mmHg 47%
17:00 +22°C° 0 mm 4 mps 751 mmHg 48%
18:00 +21°C° 0 mm 3 mps 751 mmHg 55%
19:00 +19°C° 0 mm 3 mps 751 mmHg 62%
20:00 +17°C° 0 mm 2 mps 751 mmHg 69%
21:00 +16°C° 0 mm 2 mps 752 mmHg 73%
22:00 +15°C° 0 mm 2 mps 752 mmHg 78%
23:00 +14°C° 0 mm 1 mps 752 mmHg 82%

8 July, Wednesday

Time Temperature Precipitation Wind Pressure Humidity
00:00 +13°C° 0 mm 1 mps 752 mmHg 84%
01:00 +13°C° 0 mm 2 mps 752 mmHg 86%
02:00 +12°C° 0 mm 2 mps 752 mmHg 88%
03:00 +12°C° 0 mm 2 mps 753 mmHg 89%
04:00 +12°C° 0 mm 2 mps 753 mmHg 89%
05:00 +12°C° 0 mm 2 mps 753 mmHg 90%
06:00 +14°C° 0 mm 2 mps 753 mmHg 82%
07:00 +16°C° 0 mm 2 mps 753 mmHg 74%
08:00 +17°C° 0 mm 2 mps 752 mmHg 66%
09:00 +19°C° 0 mm 2 mps 752 mmHg 61%
10:00 +20°C° 0 mm 2 mps 752 mmHg 56%
11:00 +21°C° 0 mm 3 mps 752 mmHg 51%
12:00 +22°C° 0 mm 3 mps 752 mmHg 48%
13:00 +22°C° 0 mm 3 mps 752 mmHg 46%
14:00 +24°C° 0 mm 3 mps 752 mmHg 44%
15:00 +24°C° 0 mm 3 mps 751 mmHg 45%
16:00 +22°C° 0 mm 3 mps 751 mmHg 47%
17:00 +22°C° 0 mm 3 mps 751 mmHg 48%
18:00 +20°C° 0.1 mm 3 mps 751 mmHg 58%
19:00 +18°C° 0.1 mm 2 mps 751 mmHg 69%
20:00 +16°C° 0.1 mm 2 mps 752 mmHg 79%
21:00 +15°C° 0 mm 2 mps 752 mmHg 82%
22:00 +14°C° 0 mm 2 mps 752 mmHg 84%
23:00 +13°C° 0 mm 2 mps 752 mmHg 87%

9 July, Thursday

Time Temperature Precipitation Wind Pressure Humidity
00:00 +13°C° 0 mm 2 mps 752 mmHg 90%
01:00 +12°C° 0 mm 2 mps 752 mmHg 93%
02:00 +10°C° 0 mm 2 mps 752 mmHg 96%
03:00 +10°C° 0 mm 2 mps 753 mmHg 95%
04:00 +10°C° 0 mm 2 mps 753 mmHg 94%
05:00 +12°C° 0 mm 2 mps 753 mmHg 92%
06:00 +12°C° 0 mm 3 mps 753 mmHg 83%
07:00 +14°C° 0 mm 3 mps 753 mmHg 75%
08:00 +15°C° 0 mm 4 mps 753 mmHg 66%
09:00 +17°C° 0 mm 4 mps 753 mmHg 62%
10:00 +18°C° 0 mm 4 mps 754 mmHg 58%
11:00 +19°C° 0 mm 4 mps 754 mmHg 55%
12:00 +19°C° 0.4 mm 4 mps 754 mmHg 59%
13:00 +19°C° 0.4 mm 4 mps 754 mmHg 64%
14:00 +19°C° 0.4 mm 4 mps 754 mmHg 68%
15:00 +19°C° 0.3 mm 4 mps 754 mmHg 66%
16:00 +19°C° 0.3 mm 4 mps 754 mmHg 63%
17:00 +20°C° 0.3 mm 3 mps 754 mmHg 60%
18:00 +18°C° 0.1 mm 3 mps 755 mmHg 66%
19:00 +17°C° 0.1 mm 2 mps 755 mmHg 72%
20:00 +16°C° 0.1 mm 1 mps 755 mmHg 78%
21:00 +15°C° 0 mm 1 mps 755 mmHg 81%
22:00 +13°C° 0 mm 1 mps 756 mmHg 84%
23:00 +12°C° 0 mm 1 mps 756 mmHg 87%
Show more